FW6868 Weather Reports


time (UTC)temp
C
wind
direction
speed
KPH
gust
KPH
rain 1hr
cm
rain 24hr
cm
rain mn
cm
humidity
%
barometer
mb
20240222110057 22 217 9.7 19.3 0.00 0.00 0.00 36 1014.0
20240222104604 21 200 8.0 17.7 0.00 0.00 0.00 36 1014.4
20240222103100 21 286 9.7 20.9 0.00 0.00 0.00 37 1014.6
20240222101600 21 235 4.8 22.5 0.00 0.00 0.00 37 1014.8
20240222100055 20 252 11.3 20.9 0.00 0.00 0.00 37 1014.9
20240222094553 20 282 8.0 22.5 0.00 0.00 0.00 39 1014.9
20240222093100 19 233 11.3 19.3 0.00 0.00 0.00 40 1015.0
20240222091615 18 224 8.0 20.9 0.00 0.00 0.00 42 1015.2
20240222090100 18 267 9.7 25.7 0.00 0.00 0.00 43 1015.3
20240222084559 18 188 11.3 22.5 0.00 0.00 0.00 45 1015.4
20240222083103 17 227 8.0 19.3 0.00 0.00 0.00 49 1015.5
20240222081600 17 205 4.8 12.9 0.00 0.00 0.00 51 1015.7
20240222080101 16 210 6.4 9.7 0.00 0.00 0.00 53 1015.9
20240222074613 16 164 1.6 6.4 0.00 0.00 0.00 53 1016.1
20240222073104 16 255 4.8 12.9 0.00 0.00 0.00 53 1016.2
20240222071605 16 272 3.2 12.9 0.00 0.00 0.00 51 1015.9
20240222070101 16 199 4.8 19.3 0.00 0.00 0.00 51 1016.2
20240222064606 16 233 3.2 14.5 0.00 0.00 0.00 52 1016.1
20240222063117 16 232 6.4 17.7 0.00 0.00 0.00 52 1015.7
20240222061556 16 205 8.0 20.9 0.00 0.00 0.00 52 1015.5
20240222060055 16 251 11.3 22.5 0.00 0.00 0.00 52 1015.3
20240222054557 16 227 6.4 17.7 0.00 0.00 0.00 51 1015.8
20240222053059 16 192 8.0 14.5 0.00 0.00 0.00 50 1016.1
20240222051608 16 236 8.0 16.1 0.00 0.00 0.00 49 1016.5
20240222050104 17 209 9.7 19.3 0.00 0.00 0.00 49 1016.6
20240222044554 16 242 9.7 17.7 0.00 0.00 0.00 49 1016.5
20240222043057 16 245 8.0 17.7 0.00 0.00 0.00 50 1016.6
20240222041552 16 240 4.8 12.9 0.00 0.00 0.00 50 1016.8
20240222040054 16 245 4.8 16.1 0.00 0.00 0.00 50 1016.9
20240222034605 16 223 4.8 12.9 0.00 0.00 0.00 51 1017.2
20240222033055 16 232 3.2 11.3 0.00 0.00 0.00 51 1017.5
20240222031556 15 216 6.4 9.7 0.00 0.00 0.00 57 1017.6
20240222030100 15 225 6.4 11.3 0.00 0.00 0.00 65 1017.9
20240222024552 14 248 4.8 6.4 0.00 0.00 0.00 73 1018.2
20240222023059 13 291 3.2 4.8 0.00 0.00 0.00 80 1018.3
20240222021602 11 302 1.6 6.4 0.00 0.00 0.00 85 1018.6
20240222020130 10 0 0.0 6.4 0.00 0.00 0.00 86 1018.7
20240222014554 10 273 1.6 6.4 0.00 0.00 0.00 86 1018.6
20240222013054 11 194 6.4 9.7 0.00 0.00 0.00 87 1018.7
20240222011607 11 187 3.2 6.4 0.00 0.00 0.00 87 1018.9
20240222010110 10 202 1.6 8.0 0.00 0.00 0.00 87 1019.2
20240222004612 10 214 3.2 6.4 0.00 0.00 0.00 87 1019.4
20240222003109 10 0 0.0 4.8 0.00 0.00 0.00 86 1019.8
20240222001603 11 0 0.0 1.6 0.00 0.00 0.00 85 1020.0
20240222000059 11 0 1.6 4.8 0.00 0.00 0.00 85 1020.2
20240221234604 11 176 1.6 3.2 0.00 0.00 0.00 85 1020.5
20240221233108 11 176 0.0 4.8 0.00 0.00 0.00 85 1020.6
20240221231603 12 177 3.2 6.4 0.00 0.00 0.00 84 1020.9
20240221230107 12 130 4.8 6.4 0.00 0.00 0.00 85 1021.0
20240221224602 12 32 0.0 4.8 0.00 0.00 0.00 84 1021.1
20240221223102 12 0 0.0 0.0 0.00 0.00 0.00 83 1021.4
20240221221607 11 0 0.0 0.0 0.00 0.00 0.00 83 1021.4
20240221220108 12 360 1.6 3.2 0.00 0.00 0.00 82 1021.7
20240221214553 12 0 0.0 9.7 0.00 0.00 0.00 82 1021.9
20240221213052 12 344 4.8 8.0 0.00 0.00 0.00 83 1022.0
20240221211613 12 315 3.2 11.3 0.00 0.00 0.00 83 1022.0
20240221210106 12 339 8.0 17.7 0.00 0.00 0.00 83 1022.0
20240221204631 12 334 9.7 19.3 0.00 0.00 0.00 83 1022.3
20240221203105 12 5 8.0 20.9 0.00 0.00 0.00 83 1022.3
20240221201607 12 322 11.3 19.3 0.00 0.00 0.00 83 1022.3
20240221200128 12 300 12.9 19.3 0.00 0.00 0.00 84 1022.1
20240221194605 12 343 11.3 22.5 0.00 0.00 0.00 86 1021.9
20240221193105 12 334 12.9 24.1 0.00 0.00 0.00 86 1021.9
20240221191604 12 323 11.3 19.3 0.00 0.00 0.00 86 1021.8
20240221190053 12 335 12.9 24.1 0.00 0.00 0.00 86 1021.9
20240221184559 13 342 16.1 24.1 0.00 0.00 0.00 86 1021.8
20240221183051 13 327 12.9 22.5 0.00 0.00 0.00 85 1022.0
20240221181556 13 298 11.3 24.1 0.00 0.00 0.00 83 1021.9
20240221180100 15 336 11.3 24.1 0.00 0.00 0.00 80 1021.6
20240221174552 15 0 1.6 8.0 0.00 0.00 0.00 79 1021.4
20240221173051 15 323 3.2 9.7 0.00 0.00 0.00 79 1021.0
20240221171600 15 314 4.8 8.0 0.00 0.00 0.00 77 1021.1
20240221170051 16 324 4.8 9.7 0.00 0.00 0.00 76 1021.3
20240221164557 16 327 6.4 14.5 0.00 0.00 0.00 76 1021.4
20240221163103 16 329 4.8 9.7 0.00 0.00 0.00 78 1021.0
20240221161556 15 355 1.6 4.8 0.00 0.00 0.00 78 1020.9
20240221160057 15 355 1.6 6.4 0.00 0.00 0.00 78 1021.1
20240221154559 15 315 3.2 8.0 0.00 0.00 0.00 79 1021.4
20240221153055 15 341 4.8 8.0 0.00 0.00 0.00 80 1021.5
20240221151555 15 344 4.8 8.0 0.00 0.00 0.00 80 1021.8
20240221150056 15 360 3.2 6.4 0.00 0.00 0.00 80 1022.1
20240221144559 15 22 3.2 6.4 0.00 0.00 0.00 80 1022.0
20240221143100 15 39 1.6 6.4 0.00 0.00 0.00 80 1022.3
20240221141554 14 41 4.8 9.7 0.00 0.00 0.00 80 1022.5
20240221140059 15 41 6.4 8.0 0.00 0.00 0.00 78 1022.8
20240221134601 15 68 4.8 8.0 0.00 0.00 0.00 78 1023.1
20240221133056 15 65 4.8 8.0 0.00 0.00 0.00 78 1023.3
20240221131556 14 56 4.8 8.0 0.00 0.00 0.00 77 1023.8
20240221130057 13 46 4.8 8.0 0.00 0.00 0.00 78 1024.1
20240221124558 13 26 4.8 8.0 0.00 0.00 0.00 77 1024.7
20240221123101 14 12 4.8 6.4 0.00 0.00 0.00 76 1024.8
20240221121555 14 21 3.2 6.4 0.00 0.00 0.00 74 1025.3
20240221120105 14 5 3.2 4.8 0.00 0.00 0.00 77 1025.7
20240221114556 13 74 3.2 4.8 0.00 0.00 0.00 77 1025.8
20240221113059 13 73 3.2 8.0 0.00 0.00 0.00 78 1026.2
20240221111556 13 55 3.2 8.0 0.00 0.00 0.00 78 1026.4